{"data":{"norad_id":69018,"intl_designator":"2026-100AQ","name":"EDDA-1","alt_names":[],"object_type":"PAYLOAD","status":"ACTIVE","operator":null,"country":"US","launch_date":"2026-05-03","launch_site_code":"AFWTR","launch_vehicle":null,"mission":null,"orbit_class":"UNKNOWN","rcs_meters":null,"size_class":null,"mass_kg":null,"dimensions":null,"purposes":["earth_obs"],"wikipedia_slug":null,"has_3d_model":false,"image_url":null,"decayed_at":null,"tle_current":{"epoch":"2026-05-24T23:45:41.393952Z","epoch_age_seconds":69803,"freshness":"FRESH","line1":"1 69018U 26100AQ  26144.99006243  .00002298  00000+0  10932-3 0  9991","line2":"2 69018  97.4071  43.2291 0006384  99.4819 260.7138 15.20164231  3292","mean_motion":15.20164231,"eccentricity":0.0006384,"inclination_deg":97.4071,"raan_deg":43.2291,"arg_perigee_deg":99.4819,"mean_anomaly_deg":260.7138,"bstar":0.00010932,"rev_number":329,"period_min":94.726607206955,"perigee_km":500.95038284722,"apogee_km":509.73921240643,"semimajor_km":6883.4817976268,"source":"CELESTRAK","updated_at":"2026-05-25T13:38:13.375322Z"}}}